SCP
0 0 0 0 0 0 -0 0 0 0 0 0 0 0 0 0 0 0 0 -0 -0 -0 -0 -0 -0 -0 -0 -0 -0 -0 -0 -0 0 0 0 0 0 0 0 0 0 0 0 0 0 0 0 0 0
0 0 0 0 0 0 0 -0 0 -0 0 0 -0 0 0 0 0 0 0 -0 -0 -0 -0 -0 -0 -0 -0 -0 -0 -0 -0 -0 0 0 -0 -0 0 0 0 0 0 0 0 0 0 0 0 0 0
0 0 0 -0 -0 0 0 0 -0 0 -0 -0 0 0 0 0 0 0 -0 -0 -0 -0 -0 -0 -0 -0 -0 -0 -0 -0 -0 -0 -0 -0 -0 -0 -0 -0 0 0 0 0 0 0 0 0 0 0 0
0 0 0 0 -0 -0 0 0 0 0 0 0 0 0 0 0 0 0 -0 -0 -0 -0 -0 -0 -0 -0 -0 -0 -0 -0 -0 -0 -0 -0 -0 -0 -0 -0 0 0 0 0 0 0 0 0 0 0 0
0 0 0 0 -0 -0 0 0 0 0 -0 -0 0 0 0 0 0 0 -0 -0 -0 -0 -0 -0 -0 -0 -0 -0 -0 -0 -0 -0 -0 -0 -0 -0 0 0 0 0 0 0 0 0 0 0 0 0 0
0 0 0 0 0 0 -0 -0 0 0 -0 0 -0 0 0 0 0 0 -0 -0 -0 -0 -0 -0 -0 -0 -0 -0 -0 -0 -0 -0 -0 -0 -0 0 0 0 0 0 0 0 -0 -0 0 0 0 0 0
0 0 0 0 0 0 0 -0 0 -0 -0 0 -0 0 0 0 0 0 -0 -0 -0 -0 -0 0 -0 -0 -0 -0 -0 -0 -0 -0 -0 0 0 0 0 0 0 0 -0 -0 -0 0 0 0 0 0 0
0 0 0 -0 0 0 -0 -0 -0 0 0 -0 0 -0 0 0 0 -0 -0 -0 -0 -0 0 -0 0 0 0 0 0 0 0 0 0 0 0 0 0 0 0 0 0 0 0 0 0 0 0 0 0
0 0 -0 -0 0 0 0 0 -0 0 0 0 -0 0 0 -0 -0 -0 -0 -0 -0 -0 -0 -0 0 0 0 0 0 0 0 0 0 0 0 0 0 0 0 0 0 0 0 0 0 0 0 0 0
0 -0 -0 -0 -0 -0 -0 0 0 0 0 -0 -0 0 -0 -0 -0 -0 -0 -0 -0 0 0 -0 -0 0 0 0 0 0 0 0 0 0 0 0 0 0 0 0 0 0 0 0 0 0 0 0 0
0 -0 -0 -0 0 0 -0 0 0 0 -0 -0 -0 -1 -1 -0 -0 -0 -0 -0 -0 -0 -0 -0 -0 0 0 0 0 0 0 0 0 0 0 0 0 0 0 0 0 0 0 0 0 0 0 0 0
-0 -0 -0 -0 -0 0 0 0 0 0 0 -0 -0 -1 -1 -0 -0 -0 -0 0 -0 0 -0 -0 0 0 0 0 0 0 0 0 0 0 0 0 0 0 0 0 0 0 0 0 0 0 0 0 0
0 0 -0 0 0 0 0 0 0 0 0 -0 -0 -0 -0 -0 -0 0 0 -0 0 -0 0 -0 0 0 0 0 0 0 0 0 0 0 0 0 0 0 0 0 0 0 0 0 0 0 0 0 0
0 0 0 0 0 0 0 0 0 0 0 0 -0 -0 -0 -0 -0 -0 -0 0 0 -0 -0 0 0 0 0 0 0 0 0 0 0 0 0 0 0 0 0 0 0 0 0 0 0 0 0 0 0
0 0 0 0 0 0 0 0 0 0 0 0 0 -0 0 -0 -0 -0 -0 -0 -0 0 0 0 0 0 0 0 0 0 0 0 0 0 0 0 0 0 0 0 0 0 0 0 0 0 0 0 0
-0 0 0 -0 0 0 0 0 -0 0 0 0 0 0 0 -0 -0 -0 -0 -0 -0 0 0 0 0 0 0 0 0 0 0 0 0 0 0 0 0 0 0 0 0 0 0 0 0 0 0 0 0
0 0 0 0 -0 -0 0 0 0 0 0 0 0 0 -0 0 -0 -0 -0 -0 0 0 0 0 0 0 0 0 0 0 0 0 0 0 0 0 0 0 0 0 0 0 0 0 0 0 0 0 0
0 0 0 0 0 0 0 0 0 0 0 0 0 0 -0 -0 -0 -0 -0 -0 0 0 0 0 0 0 0 0 0 0 0 0 0 0 0 0 0 0 0 0 0 0 0 0 0 0 0 0 0
0 0 0 0 -0 0 0 0 0 0 0 0 0 0 -0 -0 -0 -0 -0 -0 0 0 0 0 0 0 0 0 0 0 0 0 0 0 0 0 0 0 0 0 0 0 0 0 0 0 0 0 0
0 0 0 -0 -0 0 0 0 0 0 0 0 -0 -0 0 -0 0 0 0 0 0 0 0 0 0 0 0 0 0 0 0 0 0 0 0 0 0 0 0 0 0 0 0 0 0 0 0 0 0
-0 -0 -0 -0 0 0 0 0 -0 0 0 0 -0 0 0 0 0 0 0 0 0 0 0 0 0 0 0 0 0 0 0 0 0 0 0 0 0 0 0 0 0 0 0 0 0 0 0 0 0
0 -0 -0 0 0 0 0 0 0 0 0 0 0 0 0 0 0 0 0 0 0 0 0 0 0 0 0 0 0 0 0 0 0 0 0 0 0 0 0 0 0 0 0 0 0 0 0 0 0
0 0 0 0 0 0 0 0 0 0 0 0 0 0 -0 0 0 0 0 0 0 0 0 0 0 0 0 0 0 0 0 0 0 0 0 0 0 0 0 0 0 0 0 0 0 0 0 0 0
0 0 0 0 0 0 0 0 0 0 0 0 0 0 -0 -0 0 0 0 0 0 0 0 0 0 0 0 0 0 0 0 0 0 0 0 0 0 0 0 0 0 0 0 0 0 0 0 0 0
0 0 0 0 0 0 0 0 -0 -0 -0 -0 0 0 0 0 0 0 0 0 0 0 0 0 0 0 0 0 0 0 0 0 0 0 0 0 0 0 0 0 0 0 0 0 0 0 0 0 0
0 0 -0 0 0 0 0 0 0 -0 -0 -0 -0 -0 0 -0 0 0 0 0 0 0 0 0 0 0 0 0 0 0 0 0 0 0 0 0 0 0 0 0 0 0 0 0 0 0 0 0 0
0 0 0 0 0 0 0 0 0 0 -0 -0 -0 -0 -0 0 0 0 0 0 0 0 0 0 0 0 0 0 0 0 0 0 0 0 0 0 0 0 0 0 0 0 0 0 0 0 0 0 0
0 0 0 0 0 0 0 0 0 0 0 0 -0 -0 -0 -0 -0 -0 -0 0 0 0 0 0 0 0 0 0 0 0 0 0 0 0 0 0 0 0 0 0 0 0 0 0 0 0 0 0 0
0 0 0 0 0 0 0 0 0 0 0 0 0 0 0 0 0 0 0 0 0 0 0 0 0 0 0 0 0 0 0 0 0 0 0 0 0 0 0 0 0 0 0 0 0 0 0 0 0
0 0 0 0 0 0 0 0 0 0 0 0 0 0 0 0 0 0 0 0 0 -0 0 0 0 0 0 0 0 0 0 0 0 0 0 0 0 0 0 0 0 0 0 0 0 0 0 0 0
Wind_Speed_500mb
3 2 0 3 7 9 4 7 4 1 2 11 20 10 9 5 5 5 8 36 31 30 36 33 29 24 17 13 12 15 16 17 19 21 20 16 14 12 10 10 9 9 7 7 6 4 4 4 3
8 6 1 4 8 6 9 6 6 7 7 18 34 12 3 4 5 10 34 30 36 39 38 34 28 22 17 13 14 15 17 20 21 18 14 12 10 10 9 9 8 9 8 9 8 8 7 7 7
14 6 2 8 7 6 6 8 4 13 30 24 11 2 4 2 8 36 27 31 38 39 36 32 27 21 15 14 16 17 20 21 16 13 11 9 8 9 9 9 9 10 10 11 12 14 14 15 14
12 6 9 7 7 9 7 2 9 18 14 8 18 11 8 8 23 26 33 32 37 39 37 32 26 20 16 16 18 22 21 17 13 10 7 7 9 10 10 9 8 8 10 13 16 17 16 14 13
10 5 7 5 8 7 9 4 25 14 7 17 4 8 9 23 14 24 26 31 36 37 34 31 26 21 19 20 23 22 18 13 10 8 8 10 9 5 7 12 15 18 20 22 20 20 18 17 17
5 5 7 1 9 8 10 12 18 10 16 18 14 16 14 15 24 26 24 31 33 34 34 31 27 26 25 25 26 22 16 11 10 9 8 6 3 7 12 17 19 20 19 21 19 18 19 19 18
9 7 7 7 8 10 7 9 10 19 19 10 26 9 7 27 29 26 25 32 35 34 32 29 27 28 29 29 25 20 14 10 8 6 4 2 4 9 15 20 22 20 21 22 23 22 19 22 24
5 8 6 3 3 8 2 2 7 9 7 26 24 12 14 47 44 35 32 36 38 36 33 30 31 29 31 31 25 17 12 8 4 2 1 4 8 13 17 19 20 23 23 22 22 21 20 21 22
9 9 4 8 9 6 9 6 14 5 10 22 24 13 12 55 52 45 41 39 43 41 37 36 34 35 34 29 23 17 12 5 3 1 4 7 11 15 17 18 20 23 24 21 18 18 19 23 26
8 8 19 12 9 6 7 5 25 13 18 17 32 19 25 56 58 55 53 49 48 47 43 38 37 37 34 29 24 19 12 4 1 3 6 9 14 17 18 19 21 21 17 13 14 17 23 27 29
7 9 11 13 20 14 12 12 15 19 13 30 34 40 50 62 62 58 52 43 40 45 46 45 41 39 35 31 26 20 13 4 1 5 8 11 16 17 17 18 20 16 13 12 13 16 23 30 36
2 15 13 16 13 11 9 11 13 41 38 14 26 46 55 66 69 67 57 52 47 50 48 48 47 45 40 34 27 21 14 8 2 6 8 11 16 16 16 18 20 13 11 9 10 14 22 27 34
6 8 14 24 31 25 19 32 16 48 58 22 18 46 56 68 66 64 53 48 46 55 52 52 49 46 41 35 29 24 17 9 6 10 11 12 16 17 16 18 16 9 7 6 7 8 14 21 30
10 13 24 23 26 12 17 10 13 34 58 35 30 51 57 70 70 65 68 65 60 57 52 54 52 45 41 36 31 24 19 12 10 12 13 16 15 17 18 17 11 6 3 3 4 3 8 17 22
5 11 15 7 4 4 18 3 18 37 40 39 40 54 61 67 73 78 72 72 65 59 55 58 53 48 44 38 34 29 22 18 12 13 14 16 17 18 18 16 13 9 5 1 4 2 4 8 16
7 9 9 10 14 2 12 16 26 34 43 48 52 65 64 71 80 76 74 74 69 65 65 61 58 56 49 44 38 32 26 21 16 14 17 16 18 19 19 17 14 12 9 4 10 8 4 6 10
14 1 4 19 5 4 4 15 21 20 52 51 64 77 78 77 78 83 79 76 76 74 68 67 65 61 56 47 37 34 31 24 20 15 16 15 16 18 18 17 13 10 7 6 9 12 11 12 10
2 4 9 9 7 21 11 13 15 13 5 11 23 58 77 83 94 78 81 78 75 80 75 72 73 67 58 53 46 42 37 30 23 18 17 13 13 15 16 16 13 10 3 9 10 8 8 6 18
2 4 3 11 7 14 8 24 17 16 9 17 15 35 58 58 43 46 44 63 71 75 78 77 77 68 61 56 54 52 43 32 26 17 16 11 12 15 12 13 10 11 5 6 12 9 3 1 13
4 2 7 10 3 17 27 26 15 16 2 12 24 41 64 69 39 41 34 39 54 64 65 70 73 68 58 54 58 54 40 31 23 22 18 11 12 12 12 6 9 7 5 3 8 8 3 3 9
5 6 6 7 8 10 6 17 21 10 17 21 18 35 56 69 51 45 40 39 41 48 57 62 64 56 52 56 54 30 32 31 30 26 16 13 11 10 6 6 7 6 2 7 10 4 5 7 7
3 13 1 3 5 3 5 3 11 14 20 14 35 37 36 36 43 34 37 43 41 46 53 59 50 26 54 68 49 39 43 37 35 23 18 16 9 7 2 2 5 6 3 2 6 5 4 9 12
4 8 7 5 7 7 13 10 12 12 14 16 31 51 49 6 32 28 28 29 31 29 24 32 38 25 27 51 49 60 57 41 37 29 24 20 11 6 5 3 2 4 5 4 5 9 8 8 8
6 9 15 8 7 7 7 7 9 6 9 17 29 48 31 22 22 23 29 33 29 24 35 43 44 35 42 52 50 44 45 44 42 36 31 21 14 9 12 6 5 3 3 6 3 8 10 10 8
15 13 7 9 10 7 2 5 14 8 12 12 25 45 25 13 15 26 33 35 35 28 8 36 52 46 47 45 45 55 46 40 44 38 32 24 19 15 14 8 4 4 3 3 4 8 7 7 7
8 8 10 7 5 7 5 5 10 12 12 21 34 31 18 13 11 20 26 27 34 23 24 39 51 51 40 64 69 63 54 43 46 43 33 25 20 15 15 8 5 5 5 7 5 5 8 9 10
2 8 4 12 5 4 5 9 13 6 11 21 34 28 25 22 12 4 11 26 34 37 26 22 39 46 37 34 46 55 51 46 48 44 40 30 25 24 18 14 8 6 11 10 6 3 8 8 8
10 5 5 7 4 3 8 7 9 10 16 11 17 11 20 23 22 19 18 16 17 23 29 29 36 35 40 35 36 45 45 46 47 50 45 40 34 32 26 20 15 12 11 11 10 10 7 10 9
9 6 11 8 7 9 3 11 10 13 14 15 17 2 6 13 16 14 16 17 18 23 31 24 22 26 29 35 35 45 47 47 43 44 46 44 39 37 34 27 23 17 7 7 13 16 14 13 11
4 6 7 9 5 3 6 11 8 11 12 14 20 14 4 2 8 10 13 14 12 13 19 22 24 28 27 33 35 42 47 46 43 44 46 43 43 42 39 36 30 17 11 8 9 16 19 20 17
Wind_Direction_500mb
172 84 147 4 40 55 272 279 322 235 306 213 165 166 177 125 170 242 162 165 175 174 165 161 157 155 151 147 144 135 128 120 115 112 108 105 96 85 69 55 41 36 29 20 15 3 352 342 333
166 156 118 97 82 33 292 264 272 196 231 139 151 117 58 117 208 161 143 158 168 176 169 163 158 153 154 156 146 135 126 121 120 118 109 91 73 58 47 41 32 25 16 6 351 343 333 312 302
170 174 119 89 110 175 226 200 237 112 130 139 133 140 123 222 183 156 149 152 163 171 168 165 162 159 162 157 145 135 131 130 124 107 84 68 56 54 57 51 33 16 1 345 337 330 325 324 316
164 155 69 83 240 254 223 254 196 142 229 201 147 86 93 344 139 160 159 165 171 175 171 167 164 164 166 158 147 144 139 128 109 94 83 83 89 78 58 48 32 1 343 332 331 327 321 316 307
155 97 60 60 282 264 237 181 177 163 154 134 139 137 97 132 141 151 161 169 176 175 172 169 166 168 169 161 151 145 133 123 108 92 98 103 93 70 23 8 4 354 346 345 346 337 326 319 315
115 102 64 10 279 264 296 215 161 146 143 149 125 120 152 188 161 154 165 175 180 182 176 173 172 172 169 161 151 146 140 130 118 114 115 117 85 358 355 355 352 355 356 350 349 342 340 333 330
127 90 169 167 274 320 337 175 196 165 165 181 144 103 188 179 177 163 166 174 178 182 180 177 178 174 167 160 156 153 148 139 122 122 140 125 15 355 351 348 347 354 353 348 352 357 10 12 12
175 92 103 247 248 301 324 134 316 48 176 134 166 172 190 174 176 168 169 178 182 183 184 182 180 176 168 163 163 161 152 140 126 157 42 9 1 347 342 344 345 352 349 359 7 23 23 11 8
153 66 149 216 165 208 259 119 183 293 229 176 181 189 206 167 175 175 179 185 190 187 185 184 182 176 173 170 167 168 163 168 137 89 351 335 337 337 341 344 352 352 358 2 14 19 21 8 4
112 115 207 218 191 175 309 174 191 213 221 213 173 183 189 175 180 185 186 192 193 190 184 185 182 178 177 177 182 177 172 156 121 323 319 317 329 335 337 344 350 351 359 19 26 24 18 19 26
167 176 208 256 237 235 243 263 214 216 262 232 185 176 177 181 187 193 194 199 191 184 186 182 181 181 184 188 191 186 169 151 19 339 310 321 324 323 327 338 342 355 17 27 25 16 35 41 42
311 249 226 274 270 182 208 224 210 207 229 231 247 220 185 188 193 197 196 203 199 188 186 182 183 185 187 192 197 195 186 204 254 326 312 317 312 312 319 335 342 355 16 34 34 36 45 44 47
194 272 279 287 285 260 236 215 204 218 223 269 223 207 205 194 197 201 201 204 202 193 188 186 188 189 190 192 193 197 210 229 292 318 307 308 309 309 315 330 339 0 32 61 54 51 47 51 54
215 253 279 286 279 256 186 239 204 252 223 239 226 219 216 202 199 201 206 208 205 197 193 192 192 192 195 200 199 202 218 239 278 297 316 306 305 306 316 331 336 350 27 70 125 95 48 48 67
279 315 323 249 311 277 170 56 226 243 214 206 215 220 215 212 207 209 209 213 209 204 199 197 194 198 203 206 208 207 217 239 279 296 309 309 312 312 316 330 325 325 314 194 174 174 41 71 84
46 50 17 283 352 169 168 262 252 218 195 200 205 212 213 218 218 216 217 220 217 216 210 203 202 205 210 212 210 213 216 234 266 277 298 305 309 312 317 326 325 324 289 229 201 207 216 177 115
7 133 319 322 253 304 267 293 331 264 203 192 203 212 213 223 224 223 222 223 224 222 220 213 213 213 212 210 212 217 221 236 251 261 283 297 305 303 319 329 327 325 297 225 204 217 219 216 180
111 360 309 259 319 46 344 345 334 26 355 323 226 223 218 223 229 230 229 231 231 229 227 225 221 217 215 216 213 211 218 234 231 252 272 281 289 308 320 324 332 335 329 202 215 218 193 177 194
166 161 278 253 310 72 326 32 353 47 25 358 308 251 244 252 254 248 241 236 240 238 234 231 226 220 218 216 210 206 216 222 224 248 259 274 290 299 317 328 320 332 332 209 215 210 208 19 184
188 9 310 298 193 94 45 23 349 41 321 294 296 275 258 251 264 271 250 240 232 237 233 228 224 224 220 213 207 211 210 211 221 239 243 258 278 308 317 310 316 331 304 223 204 210 266 356 181
162 197 197 211 353 53 42 9 350 340 356 343 344 270 261 260 256 259 238 229 224 227 234 233 227 232 219 223 229 222 227 228 227 236 234 241 278 306 307 321 329 343 333 242 223 229 51 60 128
96 188 173 28 78 102 19 205 323 327 319 325 332 341 320 275 228 226 222 215 213 219 227 227 229 332 291 232 239 241 259 235 248 245 241 238 272 285 285 295 342 7 16 264 219 151 82 67 94
205 140 112 115 94 71 6 84 263 10 315 318 332 356 20 54 199 180 178 186 182 193 231 279 235 352 254 232 246 266 242 241 250 235 236 238 266 229 174 135 52 11 35 64 138 115 106 97 86
80 87 46 54 81 47 306 115 287 258 263 302 324 3 39 92 160 177 168 163 130 114 357 279 246 267 263 243 255 250 250 227 234 231 234 234 252 220 173 156 114 93 51 80 131 128 117 103 73
51 56 4 11 15 219 213 45 239 268 286 283 312 330 23 113 164 178 177 164 188 201 285 197 244 267 244 239 248 249 238 223 231 237 242 233 250 225 188 164 119 152 142 143 110 147 132 89 50
37 130 146 181 207 259 336 252 273 231 266 308 317 325 42 95 171 189 197 193 214 245 293 240 251 252 262 247 255 251 236 219 228 237 244 240 242 222 200 186 182 188 180 199 104 114 142 117 94
43 46 164 103 9 64 274 293 313 260 280 296 300 323 13 40 38 327 247 224 243 268 276 256 281 269 269 269 267 247 227 220 230 238 242 239 234 222 208 202 203 200 216 203 177 137 173 153 132
88 113 39 5 134 274 300 285 237 259 253 264 277 316 13 14 19 9 348 329 304 291 262 268 291 267 282 282 257 226 228 224 232 232 236 233 234 228 218 213 205 210 222 219 215 208 186 171 168
350 25 53 115 108 162 222 267 215 231 234 224 236 282 11 5 12 17 360 340 322 303 304 300 280 264 270 267 254 233 228 225 226 231 232 232 235 232 227 220 213 216 217 220 231 214 208 205 229
66 111 109 113 244 105 152 275 307 271 226 208 244 217 205 42 38 10 7 355 341 308 294 272 271 272 277 265 254 241 234 231 228 224 223 228 236 234 231 224 215 214 211 200 226 233 226 229 256
Wind_Speed_850mb
3 2 0 3 7 9 4 7 4 1 2 11 20 10 9 5 5 5 8 36 31 30 36 33 29 24 17 13 12 15 16 17 19 21 20 16 14 12 10 10 9 9 7 7 6 4 4 4 3
8 6 1 4 8 6 9 6 6 7 7 18 34 12 3 4 5 10 34 30 36 39 38 34 28 22 17 13 14 15 17 20 21 18 14 12 10 10 9 9 8 9 8 9 8 8 7 7 7
14 6 2 8 7 6 6 8 4 13 30 24 11 2 4 2 8 36 27 31 38 39 36 32 27 21 15 14 16 17 20 21 16 13 11 9 8 9 9 9 9 10 10 11 12 14 14 15 14
12 6 9 7 7 9 7 2 9 18 14 8 18 11 8 8 23 26 33 32 37 39 37 32 26 20 16 16 18 22 21 17 13 10 7 7 9 10 10 9 8 8 10 13 16 17 16 14 13
10 5 7 5 8 7 9 4 25 14 7 17 4 8 9 23 14 24 26 31 36 37 34 31 26 21 19 20 23 22 18 13 10 8 8 10 9 5 7 12 15 18 20 22 20 20 18 17 17
5 5 7 1 9 8 10 12 18 10 16 18 14 16 14 15 24 26 24 31 33 34 34 31 27 26 25 25 26 22 16 11 10 9 8 6 3 7 12 17 19 20 19 21 19 18 19 19 18
9 7 7 7 8 10 7 9 10 19 19 10 26 9 7 27 29 26 25 32 35 34 32 29 27 28 29 29 25 20 14 10 8 6 4 2 4 9 15 20 22 20 21 22 23 22 19 22 24
5 8 6 3 3 8 2 2 7 9 7 26 24 12 14 47 44 35 32 36 38 36 33 30 31 29 31 31 25 17 12 8 4 2 1 4 8 13 17 19 20 23 23 22 22 21 20 21 22
9 9 4 8 9 6 9 6 14 5 10 22 24 13 12 55 52 45 41 39 43 41 37 36 34 35 34 29 23 17 12 5 3 1 4 7 11 15 17 18 20 23 24 21 18 18 19 23 26
8 8 19 12 9 6 7 5 25 13 18 17 32 19 25 56 58 55 53 49 48 47 43 38 37 37 34 29 24 19 12 4 1 3 6 9 14 17 18 19 21 21 17 13 14 17 23 27 29
7 9 11 13 20 14 12 12 15 19 13 30 34 40 50 62 62 58 52 43 40 45 46 45 41 39 35 31 26 20 13 4 1 5 8 11 16 17 17 18 20 16 13 12 13 16 23 30 36
2 15 13 16 13 11 9 11 13 41 38 14 26 46 55 66 69 67 57 52 47 50 48 48 47 45 40 34 27 21 14 8 2 6 8 11 16 16 16 18 20 13 11 9 10 14 22 27 34
6 8 14 24 31 25 19 32 16 48 58 22 18 46 56 68 66 64 53 48 46 55 52 52 49 46 41 35 29 24 17 9 6 10 11 12 16 17 16 18 16 9 7 6 7 8 14 21 30
10 13 24 23 26 12 17 10 13 34 58 35 30 51 57 70 70 65 68 65 60 57 52 54 52 45 41 36 31 24 19 12 10 12 13 16 15 17 18 17 11 6 3 3 4 3 8 17 22
5 11 15 7 4 4 18 3 18 37 40 39 40 54 61 67 73 78 72 72 65 59 55 58 53 48 44 38 34 29 22 18 12 13 14 16 17 18 18 16 13 9 5 1 4 2 4 8 16
7 9 9 10 14 2 12 16 26 34 43 48 52 65 64 71 80 76 74 74 69 65 65 61 58 56 49 44 38 32 26 21 16 14 17 16 18 19 19 17 14 12 9 4 10 8 4 6 10
14 1 4 19 5 4 4 15 21 20 52 51 64 77 78 77 78 83 79 76 76 74 68 67 65 61 56 47 37 34 31 24 20 15 16 15 16 18 18 17 13 10 7 6 9 12 11 12 10
2 4 9 9 7 21 11 13 15 13 5 11 23 58 77 83 94 78 81 78 75 80 75 72 73 67 58 53 46 42 37 30 23 18 17 13 13 15 16 16 13 10 3 9 10 8 8 6 18
2 4 3 11 7 14 8 24 17 16 9 17 15 35 58 58 43 46 44 63 71 75 78 77 77 68 61 56 54 52 43 32 26 17 16 11 12 15 12 13 10 11 5 6 12 9 3 1 13
4 2 7 10 3 17 27 26 15 16 2 12 24 41 64 69 39 41 34 39 54 64 65 70 73 68 58 54 58 54 40 31 23 22 18 11 12 12 12 6 9 7 5 3 8 8 3 3 9
5 6 6 7 8 10 6 17 21 10 17 21 18 35 56 69 51 45 40 39 41 48 57 62 64 56 52 56 54 30 32 31 30 26 16 13 11 10 6 6 7 6 2 7 10 4 5 7 7
3 13 1 3 5 3 5 3 11 14 20 14 35 37 36 36 43 34 37 43 41 46 53 59 50 26 54 68 49 39 43 37 35 23 18 16 9 7 2 2 5 6 3 2 6 5 4 9 12
4 8 7 5 7 7 13 10 12 12 14 16 31 51 49 6 32 28 28 29 31 29 24 32 38 25 27 51 49 60 57 41 37 29 24 20 11 6 5 3 2 4 5 4 5 9 8 8 8
6 9 15 8 7 7 7 7 9 6 9 17 29 48 31 22 22 23 29 33 29 24 35 43 44 35 42 52 50 44 45 44 42 36 31 21 14 9 12 6 5 3 3 6 3 8 10 10 8
15 13 7 9 10 7 2 5 14 8 12 12 25 45 25 13 15 26 33 35 35 28 8 36 52 46 47 45 45 55 46 40 44 38 32 24 19 15 14 8 4 4 3 3 4 8 7 7 7
8 8 10 7 5 7 5 5 10 12 12 21 34 31 18 13 11 20 26 27 34 23 24 39 51 51 40 64 69 63 54 43 46 43 33 25 20 15 15 8 5 5 5 7 5 5 8 9 10
2 8 4 12 5 4 5 9 13 6 11 21 34 28 25 22 12 4 11 26 34 37 26 22 39 46 37 34 46 55 51 46 48 44 40 30 25 24 18 14 8 6 11 10 6 3 8 8 8
10 5 5 7 4 3 8 7 9 10 16 11 17 11 20 23 22 19 18 16 17 23 29 29 36 35 40 35 36 45 45 46 47 50 45 40 34 32 26 20 15 12 11 11 10 10 7 10 9
9 6 11 8 7 9 3 11 10 13 14 15 17 2 6 13 16 14 16 17 18 23 31 24 22 26 29 35 35 45 47 47 43 44 46 44 39 37 34 27 23 17 7 7 13 16 14 13 11
4 6 7 9 5 3 6 11 8 11 12 14 20 14 4 2 8 10 13 14 12 13 19 22 24 28 27 33 35 42 47 46 43 44 46 43 43 42 39 36 30 17 11 8 9 16 19 20 17
Wind_Direction_850mb
172 84 147 4 40 55 272 279 322 235 306 213 165 166 177 125 170 242 162 165 175 174 165 161 157 155 151 147 144 135 128 120 115 112 108 105 96 85 69 55 41 36 29 20 15 3 352 342 333
166 156 118 97 82 33 292 264 272 196 231 139 151 117 58 117 208 161 143 158 168 176 169 163 158 153 154 156 146 135 126 121 120 118 109 91 73 58 47 41 32 25 16 6 351 343 333 312 302
170 174 119 89 110 175 226 200 237 112 130 139 133 140 123 222 183 156 149 152 163 171 168 165 162 159 162 157 145 135 131 130 124 107 84 68 56 54 57 51 33 16 1 345 337 330 325 324 316
164 155 69 83 240 254 223 254 196 142 229 201 147 86 93 344 139 160 159 165 171 175 171 167 164 164 166 158 147 144 139 128 109 94 83 83 89 78 58 48 32 1 343 332 331 327 321 316 307
155 97 60 60 282 264 237 181 177 163 154 134 139 137 97 132 141 151 161 169 176 175 172 169 166 168 169 161 151 145 133 123 108 92 98 103 93 70 23 8 4 354 346 345 346 337 326 319 315
115 102 64 10 279 264 296 215 161 146 143 149 125 120 152 188 161 154 165 175 180 182 176 173 172 172 169 161 151 146 140 130 118 114 115 117 85 358 355 355 352 355 356 350 349 342 340 333 330
127 90 169 167 274 320 337 175 196 165 165 181 144 103 188 179 177 163 166 174 178 182 180 177 178 174 167 160 156 153 148 139 122 122 140 125 15 355 351 348 347 354 353 348 352 357 10 12 12
175 92 103 247 248 301 324 134 316 48 176 134 166 172 190 174 176 168 169 178 182 183 184 182 180 176 168 163 163 161 152 140 126 157 42 9 1 347 342 344 345 352 349 359 7 23 23 11 8
153 66 149 216 165 208 259 119 183 293 229 176 181 189 206 167 175 175 179 185 190 187 185 184 182 176 173 170 167 168 163 168 137 89 351 335 337 337 341 344 352 352 358 2 14 19 21 8 4
112 115 207 218 191 175 309 174 191 213 221 213 173 183 189 175 180 185 186 192 193 190 184 185 182 178 177 177 182 177 172 156 121 323 319 317 329 335 337 344 350 351 359 19 26 24 18 19 26
167 176 208 256 237 235 243 263 214 216 262 232 185 176 177 181 187 193 194 199 191 184 186 182 181 181 184 188 191 186 169 151 19 339 310 321 324 323 327 338 342 355 17 27 25 16 35 41 42
311 249 226 274 270 182 208 224 210 207 229 231 247 220 185 188 193 197 196 203 199 188 186 182 183 185 187 192 197 195 186 204 254 326 312 317 312 312 319 335 342 355 16 34 34 36 45 44 47
194 272 279 287 285 260 236 215 204 218 223 269 223 207 205 194 197 201 201 204 202 193 188 186 188 189 190 192 193 197 210 229 292 318 307 308 309 309 315 330 339 0 32 61 54 51 47 51 54
215 253 279 286 279 256 186 239 204 252 223 239 226 219 216 202 199 201 206 208 205 197 193 192 192 192 195 200 199 202 218 239 278 297 316 306 305 306 316 331 336 350 27 70 125 95 48 48 67
279 315 323 249 311 277 170 56 226 243 214 206 215 220 215 212 207 209 209 213 209 204 199 197 194 198 203 206 208 207 217 239 279 296 309 309 312 312 316 330 325 325 314 194 174 174 41 71 84
46 50 17 283 352 169 168 262 252 218 195 200 205 212 213 218 218 216 217 220 217 216 210 203 202 205 210 212 210 213 216 234 266 277 298 305 309 312 317 326 325 324 289 229 201 207 216 177 115
7 133 319 322 253 304 267 293 331 264 203 192 203 212 213 223 224 223 222 223 224 222 220 213 213 213 212 210 212 217 221 236 251 261 283 297 305 303 319 329 327 325 297 225 204 217 219 216 180
111 360 309 259 319 46 344 345 334 26 355 323 226 223 218 223 229 230 229 231 231 229 227 225 221 217 215 216 213 211 218 234 231 252 272 281 289 308 320 324 332 335 329 202 215 218 193 177 194
166 161 278 253 310 72 326 32 353 47 25 358 308 251 244 252 254 248 241 236 240 238 234 231 226 220 218 216 210 206 216 222 224 248 259 274 290 299 317 328 320 332 332 209 215 210 208 19 184
188 9 310 298 193 94 45 23 349 41 321 294 296 275 258 251 264 271 250 240 232 237 233 228 224 224 220 213 207 211 210 211 221 239 243 258 278 308 317 310 316 331 304 223 204 210 266 356 181
162 197 197 211 353 53 42 9 350 340 356 343 344 270 261 260 256 259 238 229 224 227 234 233 227 232 219 223 229 222 227 228 227 236 234 241 278 306 307 321 329 343 333 242 223 229 51 60 128
96 188 173 28 78 102 19 205 323 327 319 325 332 341 320 275 228 226 222 215 213 219 227 227 229 332 291 232 239 241 259 235 248 245 241 238 272 285 285 295 342 7 16 264 219 151 82 67 94
205 140 112 115 94 71 6 84 263 10 315 318 332 356 20 54 199 180 178 186 182 193 231 279 235 352 254 232 246 266 242 241 250 235 236 238 266 229 174 135 52 11 35 64 138 115 106 97 86
80 87 46 54 81 47 306 115 287 258 263 302 324 3 39 92 160 177 168 163 130 114 357 279 246 267 263 243 255 250 250 227 234 231 234 234 252 220 173 156 114 93 51 80 131 128 117 103 73
51 56 4 11 15 219 213 45 239 268 286 283 312 330 23 113 164 178 177 164 188 201 285 197 244 267 244 239 248 249 238 223 231 237 242 233 250 225 188 164 119 152 142 143 110 147 132 89 50
37 130 146 181 207 259 336 252 273 231 266 308 317 325 42 95 171 189 197 193 214 245 293 240 251 252 262 247 255 251 236 219 228 237 244 240 242 222 200 186 182 188 180 199 104 114 142 117 94
43 46 164 103 9 64 274 293 313 260 280 296 300 323 13 40 38 327 247 224 243 268 276 256 281 269 269 269 267 247 227 220 230 238 242 239 234 222 208 202 203 200 216 203 177 137 173 153 132
88 113 39 5 134 274 300 285 237 259 253 264 277 316 13 14 19 9 348 329 304 291 262 268 291 267 282 282 257 226 228 224 232 232 236 233 234 228 218 213 205 210 222 219 215 208 186 171 168
350 25 53 115 108 162 222 267 215 231 234 224 236 282 11 5 12 17 360 340 322 303 304 300 280 264 270 267 254 233 228 225 226 231 232 232 235 232 227 220 213 216 217 220 231 214 208 205 229
66 111 109 113 244 105 152 275 307 271 226 208 244 217 205 42 38 10 7 355 341 308 294 272 271 272 277 265 254 241 234 231 228 224 223 228 236 234 231 224 215 214 211 200 226 233 226 229 256